Regional Weather Roundup
Issued by NWS

Home | Current Version | Previous Version | Graphics & Text | Print | Product List | Glossary Off
Versions: 1 2 3 4 5 6 7 8 9 10 11 12 13 14 15 16 17 18 19 20 21 22 23 24 25 26 27 28 29 30 31 32 33 34 35 36 37 38 39 40 41 42 43 44 45 46 47 48 49

000
ASUS45 KPSR 251510
RWRAZ

ARIZONA REGIONAL HOURLY WEATHER ROUNDUP
NATIONAL WEATHER SERVICE TUCSON AZ
800 AM MST THU MAY 25 2017

NOTE: FAIR INDICATES FEW OR NO CLOUDS BELOW 12,000 FEET WITH NO
SIGNIFICANT WEATHER AND/OR OBSTRUCTIONS TO VISIBILITY.

AZZ001>003-036-251600-
NORTHWEST ARIZONA

CITY           SKY/WX    TMP DP  RH WIND       PRES   REMARKS
BULLHEAD CITY  SUNNY     88  21   8 S12G22    29.56R
KINGMAN        SUNNY     78  29  16 SW33G39   29.68S
$$

AZZ004>008-015-016-018-251600-
NORTH CENTRAL ARIZONA

CITY           SKY/WX    TMP DP  RH WIND       PRES   REMARKS
GRAND CANYON   SUNNY     65  19  17 S5        29.87S
WILLIAMS       SUNNY     64  16  15 S22G35    29.89S
PRESCOTT       SUNNY     71  13  10 S12       29.85R
FLAGSTAFF      SUNNY     61  21  21 SW22G30   29.93R
PAYSON         SUNNY     72  23  16 S12       29.92R
PAGE           SUNNY     77  21  12 SW10G18   29.65S
$$

AZZ009>014-017-251600-
NORTHEAST ARIZONA

CITY           SKY/WX    TMP DP  RH WIND       PRES   REMARKS
WINSLOW        SUNNY     76  21  12 SW21      29.81S
SAINT JOHNS    PTSUNNY   72  19  13 SW16G23   29.89S
WINDOW ROCK    SUNNY     67  23  19 SW20G31   29.91S
SHOW LOW       PTSUNNY   63  18  17 S21G29    29.94S
$$

AZZ023-251600-
GREATER PHOENIX AREA

CITY           SKY/WX    TMP DP  RH WIND       PRES   REMARKS
PHOENIX        PTSUNNY   84  30  14 N7        29.66R
BUCKEYE        MOSUNNY   81  36  19 SW7       29.68
GLENDALE       PTSUNNY   82  32  16 S7        29.68R
LUKE AFB       SUNNY     83  34  17 SW13      29.66R
DEER VALLEY    MOSUNNY   81  29  15 SW5       29.69R
SCOTTSDALE     MOSUNNY   82  30  15 SE5       29.71R
MESA-FALCON    MOSUNNY   84  30  14 S7        29.70R
MESA-GATEWAY   PTSUNNY   82  30  15 SE6       29.70R
CHANDLER       SUNNY     84  28  13 S10       29.68R
$$

AZZ027-028-251600-
SOUTHWEST MARICOPA COUNTY AND PINAL COUNTY

CITY           SKY/WX    TMP DP  RH WIND       PRES   REMARKS
CASA GRANDE    PTSUNNY   84  28  13 SW16      29.71R
$$

AZZ503-504-507>509-251600-
SOUTHEAST ARIZONA

CITY           SKY/WX    TMP DP  RH WIND       PRES   REMARKS
TUCSON         PTSUNNY   84  11   6 S14G22    29.80S
DAVIS-MONTHAN  PTSUNNY   82  13   7 S12       29.80R
RYAN FIELD     SUNNY     84  14   7 S23G30    29.78R
NOGALES        MOSUNNY   80  21  11 S14       29.90R
SIERRA VISTA   MOSUNNY   75  17  11 SW26G37   29.89R
DOUGLAS        PTSUNNY   78  18  10 SW15G28   29.90S
SAFFORD        PTSUNNY   81  23  11 E8        29.78S
$$

AZZ020-021-025-026-031-251600-
SOUTHWEST ARIZONA

CITY           SKY/WX    TMP DP  RH WIND       PRES   REMARKS
YUMA           PTSUNNY   77  25  14 S6        29.65R
$$

CAZ031-033-041-043-047-048-061-251600-
SOUTHERN CALIFORNIA

CITY           SKY/WX    TMP DP  RH WIND       PRES   REMARKS
DOWNTOWN L.A.  CLOUDY    63  48  58 CALM      29.86R
L.A. AIRPORT   CLOUDY    61  50  67 SE5       29.87R
SAN DIEGO      CLOUDY    62  50  64 CALM      29.89S
BURBANK        CLOUDY    58  48  69 SE10      29.86R
ONTARIO        CLOUDY    58  50  75 W5        29.86S
RIVERSIDE      CLOUDY    58  52  80 CALM      29.86S
PALM SPRINGS   SUNNY     74  41  30 SE3       29.63R
EL CENTRO NAS  PTSUNNY   81  15   8 W17       29.62R
IMPERIAL       LGT RAIN  81  23  11 SW20G28   29.59S
BLYTHE         SUNNY     79  35  20 CALM      29.61R
NEEDLES        SUNNY     91  19   7 S10       29.59R
$$

NVZ020-UTZ003-251600-
SOUTHERN NEVADA-UTAH

CITY           SKY/WX    TMP DP  RH WIND       PRES   REMARKS
LAS VEGAS      MOSUNNY   81  24  12 S13       29.56R
SALT LAKE CITY PTSUNNY   60  40  47 W5        29.71S
$$

NMZ009-TXZ055-251600-
NEW MEXICO-WEST TEXAS

CITY           SKY/WX    TMP DP  RH WIND       PRES   REMARKS
ALBUQUERQUE    CLOUDY    71  25  17 SW9       29.88R
EL PASO        PTSUNNY   82  22  11 SW8       29.87R
$$


........................KEY........................
SKY/WX - SKY CONDITION/WEATHER
TMP    - TEMPERATURE IN FAHRENHEIT
DP     - DEWPOINT IN FAHRENHEIT
RH     - RELATIVE HUMIDITY IN PERCENT
WIND   - DIRECTION AND SPEED IN MILES PER HOUR (MPH)
VRB    - VARIABLE WIND DIRECTION
PRES   - MEAN SEA LEVEL PRESSURE IN INCHES OF MERCURY
         F - FALLING PRESSURE   R - RISING PRESSURE
         S - STEADY PRESSURE
VSB    - VISIBILITY IN MILES
HX     - HEAT INDEX IN FAHRENHEIT
WCI    - WIND CHILL INDEX IN FAHRENHEIT
TC     - TEMPERATURE IN CELSIUS WHICH IS ALSO KNOWN AS
         TEMPERATURE IN CENTIGRADE
AFB    - AIR FORCE BASE
         LUKE AFB IS LUKE AIR FORCE BASE
         DAVIS-MONTHAN IS DAVIS-MONTHAN AIR FORCE BASE
NAS    - NAVAL AIR STATION
         EL CENTRO NAS IS EL CENTRO NAVAL AIR STATION
N/A    - NOT AVAILABLE





USA.gov is the U.S. government's official web portal to all federal, state and local government web resources and services.